Douglas Lake Weather Center

Moon Phase Calendar



Douglas Lake Water Level
Online Cameras

 


      

Current Conditions in Dandridge
8/8/2022 9:37:38 PM

78°F
Feels Like 80
Clouds
Humidity
85%
Pressure
30.06"
Wind
3.7 mph (SSE)
Dew Point
73°F
UV Index
0/10 (Low)
Visibility
6 mi

Hourly Forecast

Date & Time Mon, Aug 8
9:00 PM
Mon, Aug 8
10:00 PM
Mon, Aug 8
11:00 PM
Tue, Aug 9
12:00 AM
Tue, Aug 9
1:00 AM
Tue, Aug 9
2:00 AM
Tue, Aug 9
3:00 AM
Tue, Aug 9
4:00 AM
Tue, Aug 9
5:00 AM
Tue, Aug 9
6:00 AM
Tue, Aug 9
7:00 AM
Tue, Aug 9
8:00 AM
Tue, Aug 9
9:00 AM
Tue, Aug 9
10:00 AM
Tue, Aug 9
11:00 AM
Tue, Aug 9
12:00 PM
Tue, Aug 9
1:00 PM
Tue, Aug 9
2:00 PM
Tue, Aug 9
3:00 PM
Tue, Aug 9
4:00 PM
Tue, Aug 9
5:00 PM
Tue, Aug 9
6:00 PM
Tue, Aug 9
7:00 PM
Tue, Aug 9
8:00 PM
Tue, Aug 9
9:00 PM
Tue, Aug 9
10:00 PM
Tue, Aug 9
11:00 PM
Wed, Aug 10
12:00 AM
Wed, Aug 10
1:00 AM
Wed, Aug 10
2:00 AM
Wed, Aug 10
3:00 AM
Wed, Aug 10
4:00 AM
Wed, Aug 10
5:00 AM
Wed, Aug 10
6:00 AM
Wed, Aug 10
7:00 AM
Wed, Aug 10
8:00 AM
Wed, Aug 10
9:00 AM
Wed, Aug 10
10:00 AM
Wed, Aug 10
11:00 AM
Wed, Aug 10
12:00 PM
Wed, Aug 10
1:00 PM
Wed, Aug 10
2:00 PM
Wed, Aug 10
3:00 PM
Wed, Aug 10
4:00 PM
Wed, Aug 10
5:00 PM
Wed, Aug 10
6:00 PM
Wed, Aug 10
7:00 PM
Wed, Aug 10
8:00 PM
Condition
Rain

Clouds

Clouds

Clouds

Rain

Rain

Rain

Rain

Clouds

Clouds

Clouds

Clouds

Clouds

Clouds

Clouds

Rain

Rain

Rain

Clouds

Clouds

Clouds

Rain

Rain

Rain

Rain

Rain

Rain

Rain

Clouds

Clouds

Clouds

Clouds

Clouds

Clouds

Clouds

Rain

Clouds

Clouds

Clouds

Rain

Rain

Rain

Rain

Rain

Rain

Rain

Clouds

Clouds
Temperature 78°F78°F77°F75°F73°F71°F69°F69°F68°F68°F68°F71°F74°F78°F82°F85°F87°F89°F90°F91°F87°F79°F75°F71°F72°F70°F70°F70°F70°F70°F69°F68°F68°F68°F68°F70°F73°F76°F80°F82°F84°F85°F82°F76°F74°F73°F73°F72°F
Feels Like 79°F80°F78°F76°F74°F72°F70°F69°F69°F69°F68°F72°F75°F79°F85°F89°F91°F93°F94°F94°F93°F79°F76°F72°F73°F71°F71°F71°F71°F71°F70°F69°F69°F69°F68°F71°F74°F77°F80°F86°F89°F90°F89°F78°F76°F74°F74°F73°F
Cloudiness 92%90%91%92%83%72%14%12%11%11%11%12%14%14%14%13%12%13%38%48%65%74%79%82%100%100%100%100%100%100%100%86%90%90%90%90%90%94%96%97%96%94%99%100%100%100%100%100%
Visibility 6 mi6 mi6 mi6 mi6 mi6 mi6 mi6 mi6 mi6 mi6 mi6 mi6 mi6 mi6 mi6 mi6 mi6 mi6 mi6 mi6 mi6 mi4 mi2 mi5 mi6 mi6 mi6 mi6 mi6 mi6 mi6 mi6 mi6 mi6 mi6 mi6 mi6 mi6 mi6 mi6 mi6 mi6 mi6 mi6 mi6 mi6 mi6 mi
Precipitation 44%44%46%42%56%61%43%49%47%46%46%38%0%20%43%59%68%72%70%73%73%77%89%98%98%98%98%98%75%71%0%9%15%15%15%35%8%14%46%50%86%90%100%100%100%98%78%78%
Humidity 84%85%86%87%90%91%93%93%93%93%92%90%84%74%64%60%55%51%48%47%57%78%88%98%97%97%97%96%95%94%93%94%94%94%94%93%89%81%72%67%63%62%78%88%90%93%93%93%
Dew Point 72°F73°F72°F71°F70°F68°F66°F65°F65°F65°F65°F67°F68°F68°F68°F69°F68°F68°F67°F67°F69°F71°F70°F69°F70°F68°F68°F68°F67°F67°F66°F66°F66°F65°F65°F67°F68°F69°F69°F69°F70°F70°F74°F72°F70°F70°F70°F69°F
Pressure 30.06"30.06"30.06"30.06"30.09"30.06"30.06"30.06"30.09"30.09"30.09"30.12"30.12"30.12"30.12"30.09"30.09"30.06"30.06"30.03"30.03"30.06"30.06"30.03"30.09"30.09"30.12"30.12"30.09"30.09"30.09"30.12"30.12"30.12"30.15"30.15"30.15"30.15"30.15"30.15"30.12"30.12"30.09"30.12"30.09"30.09"30.09"30.09"
Wind Speed 3.8 mph3.7 mph3.3 mph3.6 mph3.1 mph2.5 mph2.9 mph1.9 mph1.7 mph1.7 mph1.6 mph1.4 mph1.4 mph2.6 mph3.9 mph5.1 mph6 mph6.1 mph6.7 mph6.6 mph4.9 mph1.7 mph5.5 mph8.6 mph6.6 mph3.5 mph1 mph3.5 mph2.7 mph0.9 mph0.4 mph1.9 mph1.4 mph1.4 mph1.2 mph0.9 mph0.2 mph1 mph3.1 mph3.8 mph4.8 mph5.3 mph5.7 mph5.7 mph2.2 mph2.1 mph0.7 mph2.1 mph
Wind
Direction
167°
SSE
166°
SSE
171°
S
190°
S
193°
SSW
177°
S
174°
S
150°
SSE
171°
S
163°
SSE
151°
SSE
165°
SSE
222°
SW
261°
W
270°
W
261°
W
261°
W
259°
W
259°
W
263°
W
292°
WNW
294°
WNW
179°
S
152°
SSE
139°
SE
162°
SSE
169°
S
139°
SE
150°
SSE
193°
SSW
118°
ESE
158°
SSE
168°
SSE
157°
SSE
158°
SSE
219°
SW
195°
SSW
284°
WNW
286°
WNW
279°
W
263°
W
244°
WSW
213°
SSW
194°
SSW
225°
SW
275°
W
115°
ESE
223°
SW

Daily Forecast

Date High Low Precip. Humidity
Today
Aug 8

Rain
89 °F
66 °F
70%
55%
Tuesday
Aug 9

Rain
91 °F
68 °F
98%
55%
Wednesday
Aug 10

Rain
85 °F
68 °F
100%
63%
Thursday
Aug 11

Rain
76 °F
69 °F
100%
97%
Friday
Aug 12

Rain
82 °F
61 °F
30%
51%
Saturday
Aug 13

Clear
83 °F
56 °F
0%
40%
Sunday
Aug 14

Rain
73 °F
63 °F
100%
81%
Monday
Aug 15

Rain
80 °F
65 °F
86%
63%
Tuesday
Aug 16

Rain
73 °F
67 °F
100%
96%
Wednesday
Aug 17

Rain
75 °F
64 °F
100%
87%
Thursday
Aug 18

Rain
71 °F
62 °F
67%
82%
Friday
Aug 19

Clouds
77 °F
56 °F
7%
54%
Saturday
Aug 20

Clear
82 °F
56 °F
0%
52%
Sunday
Aug 21

Rain
84 °F
63 °F
39%
59%
Monday
Aug 22

Rain
82 °F
65 °F
100%
57%
Tuesday
Aug 23

Rain
78 °F
65 °F
86%
66%

Temperature 8-14 Day Outlook



Precipitation 8-14 Day Outlook




Quick Links
Douglas Lake News
Douglas Lake Photos
Douglas Lake Videos




About Us
Contact Us
Site Map
Search Site
Advertise With Us
   
www.DouglasLake.info
THE DOUGLAS LAKE WEBSITE

Copyright 2022, Lakes Online
Privacy    |    Legal